Hourly Weather Kozylivshchyna

Today, 29 October, Thursday

Time Temperature Precipitation Wind Pressure Humidity
00:00 +5°C° 0 mm 3 mps 749 mmHg 84%
01:00 +6°C° 0 mm 2 mps 749 mmHg 87%
02:00 +5°C° 0 mm 2 mps 749 mmHg 93%
03:00 +5°C° 0 mm 2 mps 748 mmHg 94%
04:00 +4°C° 0 mm 3 mps 748 mmHg 95%
05:00 +4°C° 0 mm 3 mps 748 mmHg 96%
06:00 +4°C° 0 mm 3 mps 748 mmHg 95%
07:00 +4°C° 0 mm 3 mps 748 mmHg 94%
08:00 +5°C° 0 mm 4 mps 748 mmHg 93%
09:00 +7°C° 0 mm 3 mps 748 mmHg 87%
10:00 +9°C° 0 mm 3 mps 748 mmHg 81%
11:00 +10°C° 0 mm 3 mps 747 mmHg 75%
12:00 +10°C° 0 mm 3 mps 747 mmHg 73%
13:00 +11°C° 0 mm 3 mps 747 mmHg 71%
14:00 +11°C° 0 mm 3 mps 746 mmHg 70%
15:00 +10°C° 0 mm 2 mps 746 mmHg 73%
16:00 +9°C° 0 mm 2 mps 746 mmHg 77%
17:00 +8°C° 0 mm 2 mps 745 mmHg 80%
18:00 +8°C° 0 mm 2 mps 745 mmHg 80%
19:00 +8°C° 0 mm 2 mps 745 mmHg 79%
20:00 +7°C° 0 mm 2 mps 745 mmHg 78%
21:00 +7°C° 0 mm 2 mps 745 mmHg 78%
22:00 +7°C° 0 mm 2 mps 745 mmHg 78%
23:00 +7°C° 0 mm 2 mps 745 mmHg 77%

Tomorrow, 30 October, Friday

Time Temperature Precipitation Wind Pressure Humidity
00:00 +7°C° 0 mm 2 mps 744 mmHg 78%
01:00 +6°C° 0 mm 2 mps 744 mmHg 79%
02:00 +7°C° 0 mm 1 mps 744 mmHg 80%
03:00 +7°C° 0 mm 1 mps 744 mmHg 80%
04:00 +7°C° 0 mm 1 mps 744 mmHg 80%
05:00 +7°C° 0 mm 1 mps 744 mmHg 81%
06:00 +8°C° 0 mm 1 mps 744 mmHg 80%
07:00 +8°C° 0 mm 1 mps 744 mmHg 79%
08:00 +7°C° 0 mm 2 mps 744 mmHg 78%
09:00 +8°C° 0 mm 2 mps 744 mmHg 76%
10:00 +10°C° 0 mm 1 mps 744 mmHg 74%
11:00 +11°C° 0 mm 1 mps 744 mmHg 71%
12:00 +11°C° 0 mm 1 mps 744 mmHg 72%
13:00 +12°C° 0 mm 2 mps 744 mmHg 72%
14:00 +12°C° 0 mm 2 mps 744 mmHg 73%
15:00 +12°C° 0 mm 1 mps 744 mmHg 77%
16:00 +11°C° 0 mm 1 mps 744 mmHg 82%
17:00 +10°C° 0 mm 1 mps 744 mmHg 87%
18:00 +10°C° 0 mm 1 mps 744 mmHg 88%
19:00 +10°C° 0 mm 1 mps 744 mmHg 89%
20:00 +10°C° 0 mm 1 mps 744 mmHg 90%
21:00 +10°C° 0 mm 1 mps 744 mmHg 91%
22:00 +10°C° 0 mm 1 mps 744 mmHg 93%
23:00 +9°C° 0 mm 1 mps 744 mmHg 94%

Day after tomorrow, 31 October, Saturday

Time Temperature Precipitation Wind Pressure Humidity
00:00 +8°C° 0.1 mm 2 mps 744 mmHg 94%
01:00 +8°C° 0.1 mm 2 mps 744 mmHg 95%
02:00 +8°C° 0.1 mm 2 mps 744 mmHg 95%
03:00 +8°C° 0.4 mm 2 mps 744 mmHg 95%
04:00 +8°C° 0.4 mm 2 mps 744 mmHg 95%
05:00 +8°C° 0.4 mm 2 mps 744 mmHg 95%
06:00 +8°C° 0.6 mm 3 mps 744 mmHg 94%
07:00 +8°C° 0.6 mm 3 mps 744 mmHg 94%
08:00 +8°C° 0.6 mm 3 mps 745 mmHg 93%
09:00 +8°C° 0.5 mm 3 mps 745 mmHg 93%
10:00 +8°C° 0.5 mm 3 mps 745 mmHg 92%
11:00 +8°C° 0.5 mm 3 mps 745 mmHg 91%
12:00 +8°C° 0.3 mm 3 mps 746 mmHg 91%
13:00 +9°C° 0.3 mm 3 mps 746 mmHg 91%
14:00 +9°C° 0.3 mm 3 mps 746 mmHg 91%
15:00 +7°C° 0.1 mm 4 mps 746 mmHg 90%
16:00 +7°C° 0.1 mm 4 mps 746 mmHg 89%
17:00 +7°C° 0.1 mm 4 mps 746 mmHg 87%
18:00 +7°C° 0 mm 4 mps 746 mmHg 87%
19:00 +7°C° 0 mm 4 mps 747 mmHg 87%
20:00 +7°C° 0 mm 4 mps 747 mmHg 87%
21:00 +6°C° 0 mm 4 mps 747 mmHg 88%
22:00 +6°C° 0 mm 4 mps 747 mmHg 89%
23:00 +5°C° 0 mm 4 mps 747 mmHg 90%

1 November, Sunday

Time Temperature Precipitation Wind Pressure Humidity
00:00 +5°C° 0 mm 4 mps 747 mmHg 90%
01:00 +5°C° 0 mm 4 mps 748 mmHg 90%
02:00 +5°C° 0 mm 4 mps 748 mmHg 90%
03:00 +5°C° 0 mm 4 mps 748 mmHg 90%
04:00 +5°C° 0 mm 4 mps 747 mmHg 89%
05:00 +5°C° 0 mm 5 mps 747 mmHg 89%
06:00 +5°C° 0 mm 5 mps 747 mmHg 89%
07:00 +5°C° 0 mm 5 mps 747 mmHg 88%
08:00 +4°C° 0 mm 6 mps 747 mmHg 88%
09:00 +4°C° 0 mm 6 mps 747 mmHg 85%
10:00 +5°C° 0 mm 6 mps 747 mmHg 82%
11:00 +5°C° 0 mm 6 mps 747 mmHg 79%
12:00 +5°C° 0.2 mm 6 mps 746 mmHg 81%
13:00 +5°C° 0.2 mm 6 mps 746 mmHg 83%
14:00 +4°C° 0.2 mm 6 mps 746 mmHg 85%
15:00 +4°C° 0.5 mm 6 mps 746 mmHg 86%
16:00 +4°C° 0.5 mm 6 mps 746 mmHg 88%
17:00 +4°C° 0.5 mm 6 mps 745 mmHg 89%
18:00 +5°C° 0.2 mm 5 mps 745 mmHg 90%
19:00 +5°C° 0.2 mm 5 mps 745 mmHg 90%
20:00 +5°C° 0.2 mm 5 mps 745 mmHg 91%
21:00 +6°C° 0.2 mm 5 mps 745 mmHg 92%
22:00 +6°C° 0.2 mm 5 mps 745 mmHg 93%
23:00 +7°C° 0.2 mm 4 mps 745 mmHg 94%

2 November, Monday

Time Temperature Precipitation Wind Pressure Humidity
00:00 +7°C° 0 mm 4 mps 745 mmHg 95%
01:00 +7°C° 0 mm 4 mps 745 mmHg 95%
02:00 +8°C° 0 mm 3 mps 745 mmHg 95%
03:00 +8°C° 0 mm 3 mps 745 mmHg 96%
04:00 +8°C° 0 mm 3 mps 745 mmHg 96%
05:00 +8°C° 0 mm 3 mps 745 mmHg 96%
06:00 +8°C° 0 mm 3 mps 745 mmHg 96%
07:00 +8°C° 0 mm 3 mps 745 mmHg 95%
08:00 +8°C° 0 mm 3 mps 745 mmHg 95%
09:00 +8°C° 0 mm 3 mps 745 mmHg 93%
10:00 +9°C° 0 mm 3 mps 745 mmHg 92%
11:00 +9°C° 0 mm 3 mps 745 mmHg 90%
12:00 +9°C° 0.1 mm 3 mps 746 mmHg 89%
13:00 +9°C° 0.1 mm 3 mps 746 mmHg 89%
14:00 +9°C° 0.1 mm 3 mps 746 mmHg 88%
15:00 +8°C° 0 mm 3 mps 746 mmHg 90%
16:00 +8°C° 0 mm 3 mps 746 mmHg 92%
17:00 +7°C° 0 mm 2 mps 746 mmHg 94%
18:00 +7°C° 0 mm 2 mps 746 mmHg 94%
19:00 +7°C° 0 mm 2 mps 747 mmHg 94%
20:00 +7°C° 0 mm 1 mps 747 mmHg 94%
21:00 +7°C° 0 mm 1 mps 747 mmHg 94%
22:00 +7°C° 0 mm 1 mps 747 mmHg 94%
23:00 +7°C° 0 mm 1 mps 748 mmHg 95%

3 November, Tuesday

Time Temperature Precipitation Wind Pressure Humidity
00:00 +7°C° 0 mm 1 mps 748 mmHg 95%
01:00 +7°C° 0 mm 1 mps 748 mmHg 95%
02:00 +6°C° 0 mm 1 mps 748 mmHg 95%
03:00 +6°C° 0 mm 1 mps 749 mmHg 95%
04:00 +5°C° 0 mm 2 mps 749 mmHg 96%
05:00 +5°C° 0 mm 2 mps 749 mmHg 96%
06:00 +5°C° 0 mm 2 mps 749 mmHg 97%
07:00 +6°C° 0 mm 2 mps 749 mmHg 97%
08:00 +6°C° 0 mm 2 mps 750 mmHg 98%
09:00 +7°C° 0 mm 2 mps 750 mmHg 92%
10:00 +8°C° 0 mm 3 mps 750 mmHg 87%
11:00 +10°C° 0 mm 3 mps 750 mmHg 82%
12:00 +10°C° 0 mm 3 mps 751 mmHg 79%
13:00 +11°C° 0 mm 3 mps 751 mmHg 75%
14:00 +12°C° 0 mm 3 mps 751 mmHg 72%
15:00 +11°C° 0 mm 3 mps 751 mmHg 77%
16:00 +9°C° 0 mm 3 mps 751 mmHg 83%
17:00 +8°C° 0 mm 3 mps 752 mmHg 88%
18:00 +9°C° 0 mm 3 mps 752 mmHg 87%
19:00 +9°C° 0 mm 3 mps 753 mmHg 87%
20:00 +9°C° 0 mm 2 mps 753 mmHg 86%
21:00 +8°C° 0 mm 2 mps 753 mmHg 87%
22:00 +8°C° 0 mm 2 mps 753 mmHg 87%
23:00 +8°C° 0 mm 2 mps 754 mmHg 87%
Show more